This is the latest recevied weather packets stored in our database for station/object SM6LNJ-13. If no packets are shown the sender has not sent any weather packets the latest 1 day(s).
| Time | Temp. | Humidity | Pressure | Rain* | Wind** | Luminosity | Snow |
|---|---|---|---|---|---|---|---|
| 1778055230 | 11.67° C | 49% | 1423.1 hPa | 0 mm | 0.45 m/s, 211° | - | - |
| 1778055110 | 11.67° C | 48% | 1423.1 hPa | 0 mm | 0.89 m/s, 187° | - | - |
| 1778054990 | 11.67° C | 51% | 1423.5 hPa | 0 mm | 0.45 m/s, 174° | - | - |
| 1778054870 | 12.22° C | 51% | 1423.8 hPa | 0 mm | 0.45 m/s, 231° | - | - |
| 1778054750 | 12.22° C | 51% | 1423.9 hPa | 0 mm | 0.45 m/s, 209° | - | - |
| 1778054630 | 12.22° C | 52% | 1423.9 hPa | 0 mm | 0.45 m/s, 232° | - | - |
| 1778054510 | 11.67° C | 50% | 1423.6 hPa | 0 mm | 0.89 m/s, 198° | - | - |
| 1778054390 | 11.67° C | 49% | 1423.4 hPa | 0 mm | 0 m/s | - | - |
| 1778054271 | 11.67° C | 49% | 1423 hPa | 0 mm | 0.45 m/s, 187° | - | - |
| 1778054150 | 11.67° C | 49% | 1422.9 hPa | 0 mm | 0.89 m/s, 235° | - | - |
| 1778054030 | 11.67° C | 48% | 1423.3 hPa | 0 mm | 0.89 m/s, 178° | - | - |
| 1778053910 | 11.67° C | 49% | 1423.3 hPa | 0 mm | 0.45 m/s, 167° | - | - |
| 1778053790 | 11.67° C | 49% | 1423.2 hPa | 0 mm | 0.89 m/s, 176° | - | - |
| 1778053670 | 11.67° C | 50% | 1423.5 hPa | 0 mm | 0.45 m/s, 166° | - | - |
| 1778053550 | 11.67° C | 50% | 1423.2 hPa | 0 mm | 0.45 m/s, 106° | - | - |
| 1778053430 | 11.67° C | 50% | 1423.1 hPa | 0 mm | 0.45 m/s, 113° | - | - |
| 1778053310 | 11.67° C | 51% | 1423.3 hPa | 0 mm | 0 m/s | - | - |
| 1778053191 | 11.67° C | 51% | 1423.1 hPa | 0 mm | 0.45 m/s, 126° | - | - |
| 1778053070 | 11.67° C | 52% | 1423 hPa | 0 mm | 0.45 m/s, 138° | - | - |
| 1778052950 | 11.11° C | 52% | 1422.4 hPa | 0 mm | 0.45 m/s, 108° | - | - |
| 1778052830 | 11.11° C | 52% | 1421.9 hPa | 0 mm | 0.45 m/s, 121° | - | - |
| 1778052710 | 11.11° C | 53% | 1421.8 hPa | 0 mm | 0.45 m/s, 138° | - | - |
| 1778052590 | 11.11° C | 53% | 1421.4 hPa | 0 mm | 0.45 m/s, 137° | - | - |
| 1778052470 | 11.11° C | 53% | 1421.3 hPa | 0 mm | 0.89 m/s, 124° | - | - |
| 1778052350 | 11.11° C | 53% | 1421.2 hPa | 0 mm | 0 m/s | - | - |
* Rain latest hour (hover to see other rain measurements)
** Current wind speed in m/s (hover to see current wind gust speed)